When you browse on this site, cookies collect data to enhance your experience and personalize the content and advertising you see.
Visit our Privacy Policy to learn more. By continuing to use the site, you agree to this use of cookies and data.
  • In United Kingdom
  • List of Countries
  • For 7 days
  • Water Temperature
  • Satellite Maps
  • Weather Map
  • Weather Widgets
  • user-avatar
    Login

    Hourly Weather Borodenki

    Today, 23 April, Tuesday

    Time Temperature Precipitation Wind Pressure Humidity
    00:00 +8°C° 0 mm 2 mps 751 mmHg 68%
    01:00 +7°C° 0 mm 2 mps 751 mmHg 71%
    02:00 +8°C° 0 mm 1 mps 751 mmHg 75%
    03:00 +7°C° 0 mm 2 mps 751 mmHg 76%
    04:00 +7°C° 0 mm 2 mps 751 mmHg 77%
    05:00 +6°C° 0 mm 2 mps 751 mmHg 78%
    06:00 +8°C° 0 mm 2 mps 751 mmHg 71%
    07:00 +10°C° 0 mm 2 mps 751 mmHg 64%
    08:00 +14°C° 0 mm 2 mps 751 mmHg 56%
    09:00 +16°C° 0 mm 3 mps 751 mmHg 50%
    10:00 +17°C° 0 mm 4 mps 751 mmHg 43%
    11:00 +19°C° 0 mm 4 mps 751 mmHg 37%
    12:00 +19°C° 0 mm 4 mps 751 mmHg 37%
    13:00 +19°C° 0 mm 4 mps 751 mmHg 36%
    14:00 +19°C° 0 mm 5 mps 751 mmHg 36%
    15:00 +18°C° 0 mm 4 mps 751 mmHg 40%
    16:00 +18°C° 0 mm 3 mps 751 mmHg 43%
    17:00 +17°C° 0 mm 2 mps 750 mmHg 47%
    18:00 +15°C° 0 mm 2 mps 751 mmHg 52%
    19:00 +14°C° 0 mm 2 mps 751 mmHg 57%
    20:00 +12°C° 0 mm 2 mps 751 mmHg 62%
    21:00 +12°C° 0 mm 2 mps 751 mmHg 63%
    22:00 +10°C° 0 mm 2 mps 751 mmHg 65%
    23:00 +9°C° 0 mm 2 mps 751 mmHg 66%

    Tomorrow, 24 April, Wednesday

    Time Temperature Precipitation Wind Pressure Humidity
    00:00 +9°C° 0 mm 2 mps 751 mmHg 68%
    01:00 +9°C° 0 mm 2 mps 751 mmHg 70%
    02:00 +8°C° 0 mm 2 mps 751 mmHg 72%
    03:00 +8°C° 0 mm 2 mps 752 mmHg 72%
    04:00 +8°C° 0 mm 2 mps 752 mmHg 73%
    05:00 +8°C° 0 mm 2 mps 752 mmHg 74%
    06:00 +10°C° 0 mm 2 mps 752 mmHg 66%
    07:00 +12°C° 0 mm 3 mps 752 mmHg 58%
    08:00 +14°C° 0 mm 3 mps 752 mmHg 50%
    09:00 +17°C° 0 mm 3 mps 752 mmHg 45%
    10:00 +18°C° 0 mm 4 mps 752 mmHg 41%
    11:00 +19°C° 0 mm 4 mps 752 mmHg 37%
    12:00 +20°C° 0 mm 4 mps 752 mmHg 36%
    13:00 +20°C° 0 mm 4 mps 752 mmHg 35%
    14:00 +21°C° 0 mm 4 mps 752 mmHg 35%
    15:00 +20°C° 0 mm 3 mps 751 mmHg 38%
    16:00 +20°C° 0 mm 2 mps 751 mmHg 41%
    17:00 +20°C° 0 mm 2 mps 751 mmHg 44%
    18:00 +18°C° 0 mm 2 mps 751 mmHg 49%
    19:00 +16°C° 0 mm 2 mps 751 mmHg 54%
    20:00 +14°C° 0 mm 1 mps 751 mmHg 59%
    21:00 +13°C° 0 mm 1 mps 751 mmHg 61%
    22:00 +12°C° 0 mm 1 mps 751 mmHg 62%
    23:00 +12°C° 0 mm 1 mps 751 mmHg 64%

    Day after tomorrow, 25 April, Thursday

    Time Temperature Precipitation Wind Pressure Humidity
    00:00 +11°C° 0 mm 1 mps 751 mmHg 65%
    01:00 +11°C° 0 mm 1 mps 751 mmHg 66%
    02:00 +10°C° 0 mm 1 mps 752 mmHg 67%
    03:00 +10°C° 0 mm 1 mps 752 mmHg 68%
    04:00 +10°C° 0 mm 1 mps 752 mmHg 69%
    05:00 +10°C° 0 mm 1 mps 752 mmHg 69%
    06:00 +12°C° 0 mm 1 mps 752 mmHg 62%
    07:00 +14°C° 0 mm 1 mps 752 mmHg 55%
    08:00 +16°C° 0 mm 1 mps 752 mmHg 47%
    09:00 +19°C° 0 mm 1 mps 752 mmHg 43%
    10:00 +19°C° 0 mm 2 mps 752 mmHg 39%
    11:00 +21°C° 0 mm 2 mps 751 mmHg 35%
    12:00 +21°C° 0 mm 2 mps 751 mmHg 35%
    13:00 +21°C° 0 mm 2 mps 751 mmHg 34%
    14:00 +23°C° 0 mm 2 mps 751 mmHg 34%
    15:00 +21°C° 0 mm 2 mps 750 mmHg 37%
    16:00 +21°C° 0 mm 2 mps 750 mmHg 41%
    17:00 +21°C° 0 mm 1 mps 750 mmHg 44%
    18:00 +19°C° 0 mm 1 mps 750 mmHg 49%
    19:00 +16°C° 0 mm 1 mps 750 mmHg 54%
    20:00 +14°C° 0 mm 1 mps 749 mmHg 59%
    21:00 +14°C° 0 mm 1 mps 749 mmHg 59%
    22:00 +14°C° 0 mm 1 mps 749 mmHg 59%
    23:00 +13°C° 0 mm 0 mps 749 mmHg 59%

    26 April, Friday

    Time Temperature Precipitation Wind Pressure Humidity
    00:00 +13°C° 0 mm 0 mps 749 mmHg 59%
    01:00 +13°C° 0 mm 0 mps 749 mmHg 59%
    02:00 +13°C° 0 mm 0 mps 749 mmHg 58%
    03:00 +12°C° 0 mm 0 mps 749 mmHg 60%
    04:00 +12°C° 0 mm 0 mps 749 mmHg 62%
    05:00 +12°C° 0 mm 0 mps 749 mmHg 64%
    06:00 +14°C° 0 mm 0 mps 749 mmHg 59%
    07:00 +16°C° 0 mm 0 mps 749 mmHg 54%
    08:00 +18°C° 0 mm 0 mps 749 mmHg 49%
    09:00 +19°C° 0 mm 0 mps 749 mmHg 44%
    10:00 +22°C° 0 mm 1 mps 749 mmHg 40%
    11:00 +23°C° 0 mm 1 mps 748 mmHg 36%
    12:00 +23°C° 0 mm 1 mps 748 mmHg 37%
    13:00 +22°C° 0 mm 1 mps 748 mmHg 38%
    14:00 +22°C° 0 mm 1 mps 747 mmHg 39%
    15:00 +21°C° 0.3 mm 1 mps 747 mmHg 47%
    16:00 +20°C° 0.3 mm 1 mps 747 mmHg 55%
    17:00 +17°C° 0.3 mm 2 mps 746 mmHg 62%
    18:00 +16°C° 0.3 mm 2 mps 746 mmHg 69%
    19:00 +15°C° 0.3 mm 1 mps 746 mmHg 76%
    20:00 +14°C° 0.3 mm 1 mps 746 mmHg 82%
    21:00 +13°C° 0 mm 1 mps 745 mmHg 85%
    22:00 +12°C° 0 mm 1 mps 745 mmHg 87%
    23:00 +12°C° 0 mm 1 mps 745 mmHg 89%

    27 April, Saturday

    Time Temperature Precipitation Wind Pressure Humidity
    00:00 +11°C° 0 mm 1 mps 745 mmHg 90%
    01:00 +11°C° 0 mm 1 mps 744 mmHg 92%
    02:00 +11°C° 0 mm 1 mps 744 mmHg 93%
    03:00 +11°C° 0 mm 1 mps 744 mmHg 91%
    04:00 +11°C° 0 mm 1 mps 743 mmHg 89%
    05:00 +11°C° 0 mm 1 mps 743 mmHg 87%
    06:00 +13°C° 0 mm 1 mps 743 mmHg 80%
    07:00 +15°C° 0 mm 1 mps 743 mmHg 72%
    08:00 +17°C° 0 mm 2 mps 742 mmHg 64%
    09:00 +18°C° 0 mm 2 mps 742 mmHg 56%
    10:00 +19°C° 0 mm 2 mps 742 mmHg 48%
    11:00 +21°C° 0 mm 3 mps 742 mmHg 39%
    12:00 +21°C° 0 mm 3 mps 741 mmHg 42%
    13:00 +20°C° 0 mm 2 mps 741 mmHg 44%
    14:00 +20°C° 0 mm 2 mps 741 mmHg 47%
    15:00 +19°C° 0 mm 2 mps 740 mmHg 51%
    16:00 +19°C° 0 mm 2 mps 740 mmHg 56%
    17:00 +19°C° 0 mm 1 mps 739 mmHg 60%
    18:00 +18°C° 0 mm 1 mps 739 mmHg 63%
    19:00 +16°C° 0 mm 2 mps 739 mmHg 66%
    20:00 +14°C° 0 mm 2 mps 739 mmHg 70%
    21:00 +14°C° 0 mm 2 mps 739 mmHg 73%
    22:00 +13°C° 0 mm 2 mps 739 mmHg 75%
    23:00 +13°C° 0 mm 2 mps 738 mmHg 78%

    28 April, Sunday

    Time Temperature Precipitation Wind Pressure Humidity
    00:00 +12°C° 0 mm 2 mps 738 mmHg 82%
    01:00 +12°C° 0 mm 2 mps 738 mmHg 85%
    02:00 +10°C° 0 mm 2 mps 738 mmHg 88%
    03:00 +11°C° 0.4 mm 1 mps 738 mmHg 90%
    04:00 +11°C° 0.4 mm 1 mps 738 mmHg 91%
    05:00 +10°C° 0.4 mm 0 mps 738 mmHg 93%
    06:00 +13°C° 0.1 mm 1 mps 739 mmHg 86%
    07:00 +14°C° 0.1 mm 2 mps 739 mmHg 79%
    08:00 +16°C° 0.1 mm 2 mps 739 mmHg 72%
    09:00 +17°C° 0.2 mm 3 mps 739 mmHg 68%
    10:00 +18°C° 0.2 mm 3 mps 740 mmHg 64%
    11:00 +19°C° 0.2 mm 4 mps 740 mmHg 59%
    12:00 +19°C° 0.3 mm 4 mps 740 mmHg 58%
    13:00 +19°C° 0.3 mm 5 mps 740 mmHg 57%
    14:00 +17°C° 0.3 mm 5 mps 741 mmHg 57%
    15:00 +17°C° 0 mm 5 mps 741 mmHg 57%
    16:00 +16°C° 0 mm 5 mps 741 mmHg 57%
    17:00 +15°C° 0 mm 5 mps 741 mmHg 58%
    18:00 +13°C° 0 mm 4 mps 742 mmHg 61%
    19:00 +12°C° 0 mm 4 mps 742 mmHg 64%
    20:00 +10°C° 0 mm 4 mps 743 mmHg 67%
    21:00 +8°C° 0 mm 4 mps 743 mmHg 64%
    22:00 +8°C° 0 mm 4 mps 744 mmHg 62%
    23:00 +7°C° 0 mm 4 mps 744 mmHg 59%
    Show more